(140190) = 2001 SJ214 = 2003 AZ62

Discovered at Socorro on 2001-09-19 by LINEAR.

Orbit

Orbit type: Main Belt

Note: WebGL enabled browser required.

epoch2024-03-31.0
epoch JD2460400.5
perihelion date2022-07-20.88887
perihelion JD2459781.38887
argument of perihelion (°)271.03191
ascending node (°)96.38294
inclination (°)2.91644
eccentricity0.1219133
perihelion distance (AU)2.6333896
Tisserand w.r.t. Jupiter3.2
ΔV w.r.t. Earth (km/sec)10.2
semimajor axis (AU)2.9990088
mean anomaly (°)117.49133
mean daily motion (°/day)0.18977420
aphelion distance (AU)3.365
period (years)5.19
P-vector [x]0.99035079
P-vector [y]0.13850677
P-vector [z]0.00460347
Q-vector [x]-0.12902942
Q-vector [y]0.90944774
Q-vector [z]0.39529256
absolute magnitude15.87
phase slope0.15
uncertainty0
referenceMPEC 2024-C128
observations used539
oppositions18
arc length (days)8180
first opposition used2001
last opposition used2024
residual rms (arc-secs)0.63
perturbers coarse indicatorM-v
perturbers precise indicator003Ek
first observation date used2001-09-19.0
last observation date used2024-02-11.0
computer nameMPCLINUX
JD of orbit computation2456760.670603
perihelion JD uncertainty (days)8.3363E-05
argument of perihelion uncertainty (°)6.7036E-05
ascending node uncertainty (°)6.4989E-05
inclination uncertainty (°)3.7339E-06
eccentricity uncertainty 2.8569E-08
perihelion distance uncertainty (AU)8.9238E-08
Minimum Orbit Intersection Distances (in AU)
for orbit epoch: 2460400.5, reference: E2024-GB3
Mercury2.27282
Venus1.9073
Earth1.63419
Mars1.22413
Jupiter2.08744
Saturn5.98205
Uranus15.0986
Neptune27.0812

Observations

548 total observations over interval: 2001 09 19.26229 – 2024 02 11.503873
These data are available for download (format description).

Date (UT) J2000 RA J2000 Dec Magn Location Ref
2001 09 19.26229 00 45 32.78 -00 08 29.7 19.4   704 – Lincoln Laboratory ETS, New Mexico MPS 36760
2001 09 19.27775 00 45 32.05 -00 08 35.3 20.1   704 – Lincoln Laboratory ETS, New Mexico MPS 36760
2001 09 19.29299 00 45 31.48 -00 08 39.0 19.4   704 – Lincoln Laboratory ETS, New Mexico MPS 36760
2001 09 19.30979 00 45 30.68 -00 08 44.8 19.3   704 – Lincoln Laboratory ETS, New Mexico MPS 36760
2001 09 21.34830 00 44 04.66 -00 18 53.7 19.8   704 – Lincoln Laboratory ETS, New Mexico MPS 36760
2001 09 21.36237 00 44 04.01 -00 18 57.6 19.4   704 – Lincoln Laboratory ETS, New Mexico MPS 36760
2001 09 21.37689 00 44 03.38 -00 19 01.9 19.7   704 – Lincoln Laboratory ETS, New Mexico MPS 36760
2001 10 06.36833 00 32 44.64 -01 32 17.2 21.2   644 – Palomar Mountain/NEAT MPS 38266
2001 10 06.38160 00 32 44.03 -01 32 21.0 20.7   644 – Palomar Mountain/NEAT MPS 38266
2001 10 06.39245 00 32 43.48 -01 32 23.8 20.3   644 – Palomar Mountain/NEAT MPS 38266
2001 10 20.18513 00 23 01.83 -02 25 12.3 18.5   704 – Lincoln Laboratory ETS, New Mexico MPS 40618
2001 10 20.20204 00 23 01.15 -02 25 14.9 19.2   704 – Lincoln Laboratory ETS, New Mexico MPS 40618
2001 10 20.23833 00 22 59.74 -02 25 21.8 19.1   704 – Lincoln Laboratory ETS, New Mexico MPS 40618
2001 10 20.25725 00 22 59.02 -02 25 25.4 18.7   704 – Lincoln Laboratory ETS, New Mexico MPS 40618
2002 12 06.354830 07 50 09.424 +21 27 58.13 20.63 V 645 – Apache Point-Sloan Digital Sky Survey MPS 178267
2002 12 06.358302 07 50 09.334 +21 27 58.54 21.46   645 – Apache Point-Sloan Digital Sky Survey MPS 178267
2003 01 08.31619 07 26 08.65 +22 53 53.3 19.9   704 – Lincoln Laboratory ETS, New Mexico MPS 71823
2003 01 08.33070 07 26 07.90 +22 53 55.0 20.3   704 – Lincoln Laboratory ETS, New Mexico MPS 71823
2003 01 08.34558 07 26 07.10 +22 53 58.7 20.1   704 – Lincoln Laboratory ETS, New Mexico MPS 71823
2003 01 08.36016 07 26 06.26 +22 54 00.6 19.8   704 – Lincoln Laboratory ETS, New Mexico MPS 71823
2003 01 08.37487 07 26 05.40 +22 54 03.1 20.3   704 – Lincoln Laboratory ETS, New Mexico MPS 71823
2003 01 09.26183 07 25 16.55 +22 56 26.4 20.1   704 – Lincoln Laboratory ETS, New Mexico MPS 71823
2003 01 09.27650 07 25 15.75 +22 56 28.8 19.9   704 – Lincoln Laboratory ETS, New Mexico MPS 71823
2003 01 09.29165 07 25 14.87 +22 56 30.8 19.9   704 – Lincoln Laboratory ETS, New Mexico MPS 71823
2003 01 10.37115 07 24 15.06 +22 59 23.5 18.9   704 – Lincoln Laboratory ETS, New Mexico MPS 71823
2003 01 10.38741 07 24 14.23 +22 59 26.9 19.5   704 – Lincoln Laboratory ETS, New Mexico MPS 71823
2003 01 10.40365 07 24 13.30 +22 59 29.6 19.8   704 – Lincoln Laboratory ETS, New Mexico MPS 71823
2003 01 10.42099 07 24 12.32 +22 59 32.3 19.6   704 – Lincoln Laboratory ETS, New Mexico MPS 71823
2005 02 16.34565 16 31 21.27 -19 49 55.9 21.7 R 809 – European Southern Observatory, La Silla MPS 127856
2005 02 16.35312 16 31 21.69 -19 49 56.6 21.5 R 809 – European Southern Observatory, La Silla MPS 127856
2005 02 16.36068 16 31 22.10 -19 49 57.5 21.4 R 809 – European Southern Observatory, La Silla MPS 127856
2005 02 18.33184 16 33 09.71 -19 53 23.7 21.0 R 809 – European Southern Observatory, La Silla MPS 127856
2005 02 18.33944 16 33 10.11 -19 53 24.6 20.9 R 809 – European Southern Observatory, La Silla MPS 127856
2005 02 18.34708 16 33 10.53 -19 53 25.4 21.0 R 809 – European Southern Observatory, La Silla MPS 127856
2006 08 21.28156 23 14 31.74 -09 18 56.7 19.7 V 691 – Steward Observatory, Kitt Peak-Spacewatch MPS 175955
2006 08 21.29886 23 14 31.07 -09 19 01.9 19.8 V 691 – Steward Observatory, Kitt Peak-Spacewatch MPS 175955
2006 08 21.31616 23 14 30.38 -09 19 07.5 19.9 V 691 – Steward Observatory, Kitt Peak-Spacewatch MPS 175955
2006 08 21.47497 23 14 24.26 -09 19 52.7 19.3 V F84 – Hibiscus Observatory, Punaauia MPS 175955
2006 08 21.52462 23 14 22.29 -09 20 06.8 19.6 V F84 – Hibiscus Observatory, Punaauia MPS 175955
2006 08 21.54900 23 14 21.28 -09 20 15.6 19.2 V F84 – Hibiscus Observatory, Punaauia MPS 175955
2006 08 30.30627 23 08 20.93 -10 06 35.4 19.1 R 699 – Lowell Observatory-LONEOS MPS 176870
2006 08 30.33033 23 08 19.84 -10 06 44.0   699 – Lowell Observatory-LONEOS MPS 176870
2006 08 30.35340 23 08 18.91 -10 06 50.0   699 – Lowell Observatory-LONEOS MPS 176870
2006 08 30.38100 23 08 17.55 -10 06 59.7   699 – Lowell Observatory-LONEOS MPS 176870
2006 09 14.27167 22 57 04.57 -11 22 44.0 19.9 V 703 – Catalina Sky Survey MPS 178267
2006 09 14.27809 22 57 04.32 -11 22 45.5 19.3 V 703 – Catalina Sky Survey MPS 178267
2006 09 14.28453 22 57 03.88 -11 22 49.1 19.1 V 703 – Catalina Sky Survey MPS 178267
2006 09 14.29094 22 57 03.70 -11 22 49.1 19.2 V 703 – Catalina Sky Survey MPS 178267
2006 09 18.21097 22 54 13.08 -11 40 05.2 19.2 R 699 – Lowell Observatory-LONEOS MPS 179125
2006 09 18.23291 22 54 12.10 -11 40 09.9   699 – Lowell Observatory-LONEOS MPS 179125
2006 09 18.25486 22 54 11.12 -11 40 15.9   699 – Lowell Observatory-LONEOS MPS 179125
2006 09 18.27680 22 54 10.16 -11 40 22.2   699 – Lowell Observatory-LONEOS MPS 179125
2007 12 03.31846 06 25 19.80 +22 38 12.3 20.0 V 691 – Steward Observatory, Kitt Peak-Spacewatch MPS 230786
2007 12 03.33610 06 25 19.00 +22 38 13.7 20.0 V 691 – Steward Observatory, Kitt Peak-Spacewatch MPS 230786
2007 12 03.35374 06 25 18.17 +22 38 15.0 19.9 V 691 – Steward Observatory, Kitt Peak-Spacewatch MPS 230786
2009 02 22.22446 11 30 14.29 +07 22 38.0   691 – Steward Observatory, Kitt Peak-Spacewatch MPS 278396
2009 02 22.24255 11 30 13.54 +07 22 43.5   691 – Steward Observatory, Kitt Peak-Spacewatch MPS 278396
2009 02 22.26066 11 30 12.78 +07 22 48.9   691 – Steward Observatory, Kitt Peak-Spacewatch MPS 278396
2009 03 24.34289 11 08 03.79 +09 49 01.2   291 – LPL/Spacewatch II MPS 282268
2009 03 24.34836 11 08 03.55 +09 49 02.8   291 – LPL/Spacewatch II MPS 282268
2009 03 24.35399 11 08 03.32 +09 49 03.9   291 – LPL/Spacewatch II MPS 282268
2010 04 08.41164 15 52 28.26 -17 13 39.2 21.0 V 691 – Steward Observatory, Kitt Peak-Spacewatch MPS 321913
2010 04 08.42932 15 52 27.87 -17 13 37.9 21.5 V 691 – Steward Observatory, Kitt Peak-Spacewatch MPS 321913
2010 04 08.44701 15 52 27.45 -17 13 36.3 21.2 V 691 – Steward Observatory, Kitt Peak-Spacewatch MPS 321913
2010 05 11.28516 15 31 39.43 -16 05 24.8 20.2 V G96 – Mt. Lemmon Survey MPS 327182
2010 05 11.29165 15 31 39.10 -16 05 24.0 20.1 V G96 – Mt. Lemmon Survey MPS 327182
2010 05 11.29815 15 31 38.71 -16 05 23.1 19.7 V G96 – Mt. Lemmon Survey MPS 327182
2010 05 11.30465 15 31 38.46 -16 05 22.3 19.9 V G96 – Mt. Lemmon Survey MPS 327182
2010 05 12.36496 15 30 46.13 -16 02 42.4 20.3 V 691 – Steward Observatory, Kitt Peak-Spacewatch MPS 327182
2010 05 12.38272 15 30 45.23 -16 02 39.5 20.4 V 691 – Steward Observatory, Kitt Peak-Spacewatch MPS 327182
2010 05 12.40044 15 30 44.29 -16 02 36.5 20.3 V 691 – Steward Observatory, Kitt Peak-Spacewatch MPS 327182
2010 05 13.25621 15 30 02.32 -16 00 28.0 20.1 V 691 – Steward Observatory, Kitt Peak-Spacewatch MPS 327182
2010 05 13.27390 15 30 01.39 -16 00 26.0 20.2 V 691 – Steward Observatory, Kitt Peak-Spacewatch MPS 327182
2010 05 13.28906 15 30 00.57 -16 00 23.4 19.9 V 691 – Steward Observatory, Kitt Peak-Spacewatch MPS 327182
2010 05 18.408703 15 25 46.770 -15 47 39.50 20.24 r F51 – Pan-STARRS 1, Haleakala MPS 338557
2010 05 18.410574 15 25 46.662 -15 47 39.10 20.17 r F51 – Pan-STARRS 1, Haleakala MPS 338557
2010 05 18.419477 15 25 46.218 -15 47 37.90 20.03 r F51 – Pan-STARRS 1, Haleakala MPS 338557
2010 05 18.421353 15 25 46.121 -15 47 37.44 20.09 r F51 – Pan-STARRS 1, Haleakala MPS 338557
2011 07 27.48373 21 47 08.941 -16 25 55.40 19.9 w F51 – Pan-STARRS 1, Haleakala MPS 387626
2011 07 27.49845 21 47 08.349 -16 25 59.47 19.8 w F51 – Pan-STARRS 1, Haleakala MPS 387626
2011 07 27.51314 21 47 07.758 -16 26 03.55 19.9 w F51 – Pan-STARRS 1, Haleakala MPS 387626
2011 08 01.43505 21 43 49.072 -16 49 02.83 20.1 g F51 – Pan-STARRS 1, Haleakala MPS 388551
2011 08 01.43572 21 43 49.034 -16 49 03.00 20.0 g F51 – Pan-STARRS 1, Haleakala MPS 388551
2011 08 01.44713 21 43 48.541 -16 49 06.26 20.2 g F51 – Pan-STARRS 1, Haleakala MPS 388551
2011 08 01.44777 21 43 48.508 -16 49 06.48 20.1 g F51 – Pan-STARRS 1, Haleakala MPS 388551
